Hourly Weather Alliste

Today, 3 December, Thursday

Time Temperature Precipitation Wind Pressure Humidity
00:00 +14°C° 0.2 mm 10 mps 756 mmHg 84%
01:00 +14°C° 0.2 mm 10 mps 756 mmHg 84%
02:00 +14°C° 1.4 mm 11 mps 755 mmHg 83%
03:00 +15°C° 1.4 mm 12 mps 755 mmHg 82%
04:00 +15°C° 1.4 mm 13 mps 755 mmHg 80%
05:00 +15°C° 0.6 mm 12 mps 755 mmHg 81%
06:00 +14°C° 0.6 mm 12 mps 754 mmHg 81%
07:00 +14°C° 0.6 mm 11 mps 754 mmHg 82%
08:00 +16°C° 0.3 mm 11 mps 754 mmHg 79%
09:00 +16°C° 0.3 mm 11 mps 755 mmHg 76%
10:00 +17°C° 0.3 mm 11 mps 755 mmHg 73%
11:00 +17°C° 0.5 mm 11 mps 754 mmHg 73%
12:00 +17°C° 0.5 mm 12 mps 754 mmHg 73%
13:00 +17°C° 0.5 mm 12 mps 753 mmHg 73%
14:00 +17°C° 0.9 mm 13 mps 753 mmHg 74%
15:00 +15°C° 0.9 mm 13 mps 752 mmHg 76%
16:00 +15°C° 0.9 mm 13 mps 752 mmHg 77%
17:00 +15°C° 1.2 mm 13 mps 752 mmHg 78%
18:00 +15°C° 1.2 mm 13 mps 751 mmHg 78%
19:00 +14°C° 1.2 mm 13 mps 751 mmHg 79%
20:00 +14°C° 1.2 mm 13 mps 751 mmHg 78%
21:00 +14°C° 1.2 mm 12 mps 751 mmHg 78%
22:00 +14°C° 1.2 mm 12 mps 750 mmHg 77%
23:00 +14°C° 0.7 mm 11 mps 750 mmHg 79%

Tomorrow, 4 December, Friday

Time Temperature Precipitation Wind Pressure Humidity
00:00 +14°C° 0.7 mm 10 mps 750 mmHg 81%
01:00 +13°C° 0.7 mm 9 mps 750 mmHg 83%
02:00 +13°C° 0.7 mm 8 mps 749 mmHg 82%
03:00 +13°C° 0.7 mm 8 mps 749 mmHg 82%
04:00 +12°C° 0.7 mm 7 mps 748 mmHg 82%
05:00 +13°C° 0.7 mm 6 mps 749 mmHg 81%
06:00 +13°C° 0.7 mm 5 mps 749 mmHg 81%
07:00 +13°C° 0.7 mm 5 mps 749 mmHg 80%
08:00 +13°C° 0.5 mm 6 mps 750 mmHg 79%
09:00 +14°C° 0.5 mm 7 mps 751 mmHg 79%
10:00 +13°C° 0.5 mm 9 mps 751 mmHg 78%
11:00 +13°C° 0.3 mm 8 mps 751 mmHg 77%
12:00 +14°C° 0.3 mm 6 mps 752 mmHg 77%
13:00 +14°C° 0.3 mm 5 mps 752 mmHg 77%
14:00 +14°C° 0.1 mm 5 mps 752 mmHg 76%
15:00 +14°C° 0.1 mm 5 mps 752 mmHg 75%
16:00 +14°C° 0.1 mm 4 mps 753 mmHg 74%
17:00 +13°C° 0 mm 5 mps 753 mmHg 75%
18:00 +13°C° 0 mm 6 mps 753 mmHg 75%
19:00 +12°C° 0 mm 7 mps 754 mmHg 75%
20:00 +12°C° 0 mm 8 mps 754 mmHg 76%
21:00 +12°C° 0 mm 8 mps 754 mmHg 76%
22:00 +12°C° 0 mm 9 mps 754 mmHg 77%
23:00 +12°C° 0 mm 8 mps 754 mmHg 77%

Day after tomorrow, 5 December, Saturday

Time Temperature Precipitation Wind Pressure Humidity
00:00 +12°C° 0 mm 8 mps 754 mmHg 77%
01:00 +12°C° 0 mm 8 mps 754 mmHg 77%
02:00 +12°C° 0.1 mm 8 mps 754 mmHg 77%
03:00 +12°C° 0.1 mm 8 mps 754 mmHg 78%
04:00 +12°C° 0.1 mm 9 mps 754 mmHg 78%
05:00 +12°C° 0.2 mm 9 mps 754 mmHg 79%
06:00 +13°C° 0.2 mm 9 mps 754 mmHg 80%
07:00 +13°C° 0.2 mm 9 mps 754 mmHg 82%
08:00 +13°C° 0.2 mm 9 mps 754 mmHg 79%
09:00 +14°C° 0.2 mm 10 mps 754 mmHg 75%
10:00 +16°C° 0.2 mm 10 mps 755 mmHg 72%
11:00 +16°C° 0 mm 10 mps 754 mmHg 68%
12:00 +17°C° 0 mm 11 mps 754 mmHg 65%
13:00 +17°C° 0 mm 11 mps 754 mmHg 61%
14:00 +17°C° 0 mm 11 mps 754 mmHg 65%
15:00 +16°C° 0 mm 11 mps 754 mmHg 69%
16:00 +16°C° 0 mm 11 mps 754 mmHg 73%
17:00 +14°C° 0.1 mm 11 mps 754 mmHg 75%
18:00 +14°C° 0.1 mm 11 mps 754 mmHg 77%
19:00 +14°C° 0.1 mm 11 mps 754 mmHg 79%
20:00 +14°C° 0 mm 12 mps 753 mmHg 79%
21:00 +14°C° 0 mm 12 mps 753 mmHg 78%
22:00 +14°C° 0 mm 12 mps 753 mmHg 78%
23:00 +15°C° 0.3 mm 13 mps 752 mmHg 78%

6 December, Sunday

Time Temperature Precipitation Wind Pressure Humidity
00:00 +15°C° 0.3 mm 14 mps 752 mmHg 78%
01:00 +15°C° 0.3 mm 15 mps 751 mmHg 78%
02:00 +15°C° 0.4 mm 16 mps 751 mmHg 78%
03:00 +15°C° 0.4 mm 17 mps 750 mmHg 77%
04:00 +15°C° 0.4 mm 17 mps 749 mmHg 77%
05:00 +15°C° 0.4 mm 18 mps 748 mmHg 75%
06:00 +15°C° 0.4 mm 19 mps 748 mmHg 74%
07:00 +16°C° 0.4 mm 19 mps 747 mmHg 72%
08:00 +16°C° 0.9 mm 19 mps 747 mmHg 73%
09:00 +16°C° 0.9 mm 20 mps 747 mmHg 74%
10:00 +16°C° 0.9 mm 20 mps 747 mmHg 75%
11:00 +16°C° 2.3 mm 18 mps 747 mmHg 73%
12:00 +15°C° 2.3 mm 16 mps 747 mmHg 71%
13:00 +15°C° 2.3 mm 14 mps 747 mmHg 69%
14:00 +14°C° 0.1 mm 12 mps 748 mmHg 69%
15:00 +13°C° 0.1 mm 11 mps 748 mmHg 69%
16:00 +12°C° 0.1 mm 9 mps 749 mmHg 68%
17:00 +12°C° 0 mm 8 mps 750 mmHg 70%
18:00 +12°C° 0 mm 7 mps 751 mmHg 71%
19:00 +11°C° 0 mm 7 mps 752 mmHg 72%
20:00 +11°C° 0 mm 6 mps 752 mmHg 72%
21:00 +12°C° 0 mm 5 mps 753 mmHg 71%
22:00 +11°C° 0 mm 4 mps 754 mmHg 71%
23:00 +11°C° 0 mm 4 mps 754 mmHg 69%

7 December, Monday

Time Temperature Precipitation Wind Pressure Humidity
00:00 +11°C° 0 mm 3 mps 754 mmHg 68%
01:00 +11°C° 0 mm 3 mps 754 mmHg 66%
02:00 +11°C° 0 mm 4 mps 754 mmHg 66%
03:00 +10°C° 0 mm 5 mps 754 mmHg 66%
04:00 +10°C° 0 mm 5 mps 754 mmHg 66%
05:00 +10°C° 0 mm 5 mps 754 mmHg 68%
06:00 +10°C° 0 mm 6 mps 754 mmHg 71%
07:00 +10°C° 0 mm 6 mps 755 mmHg 73%
08:00 +11°C° 0.4 mm 6 mps 755 mmHg 69%
09:00 +13°C° 0.4 mm 5 mps 755 mmHg 65%
10:00 +15°C° 0.4 mm 5 mps 755 mmHg 61%
11:00 +15°C° 0.1 mm 4 mps 755 mmHg 59%
12:00 +16°C° 0.1 mm 3 mps 755 mmHg 56%
13:00 +16°C° 0.1 mm 1 mps 755 mmHg 54%
14:00 +15°C° 0 mm 2 mps 755 mmHg 58%
15:00 +13°C° 0 mm 3 mps 755 mmHg 62%
16:00 +13°C° 0 mm 4 mps 755 mmHg 67%
17:00 +12°C° 0 mm 4 mps 755 mmHg 69%
18:00 +12°C° 0 mm 5 mps 755 mmHg 71%
19:00 +11°C° 0 mm 6 mps 756 mmHg 73%
20:00 +11°C° 0.1 mm 6 mps 756 mmHg 73%
21:00 +11°C° 0.1 mm 6 mps 756 mmHg 74%
22:00 +10°C° 0.1 mm 6 mps 756 mmHg 74%
23:00 +10°C° 0.1 mm 6 mps 756 mmHg 74%

8 December, Tuesday

Time Temperature Precipitation Wind Pressure Humidity
00:00 +10°C° 0.1 mm 5 mps 756 mmHg 73%
01:00 +11°C° 0.1 mm 4 mps 756 mmHg 73%
02:00 +11°C° 0 mm 4 mps 756 mmHg 72%
03:00 +11°C° 0 mm 4 mps 756 mmHg 72%
04:00 +10°C° 0 mm 5 mps 756 mmHg 72%
05:00 +11°C° 0 mm 4 mps 757 mmHg 71%
06:00 +11°C° 0 mm 4 mps 757 mmHg 70%
07:00 +11°C° 0 mm 4 mps 757 mmHg 69%
08:00 +12°C° 0 mm 5 mps 757 mmHg 65%
09:00 +13°C° 0 mm 5 mps 758 mmHg 61%
10:00 +14°C° 0 mm 5 mps 758 mmHg 57%
11:00 +14°C° 0 mm 6 mps 758 mmHg 56%
12:00 +14°C° 0 mm 6 mps 758 mmHg 54%
13:00 +14°C° 0 mm 6 mps 758 mmHg 52%
14:00 +14°C° 0 mm 5 mps 758 mmHg 56%
15:00 +13°C° 0 mm 4 mps 758 mmHg 59%
16:00 +12°C° 0 mm 3 mps 758 mmHg 62%
17:00 +12°C° 0 mm 3 mps 758 mmHg 62%
18:00 +11°C° 0 mm 3 mps 758 mmHg 62%
19:00 +11°C° 0 mm 3 mps 758 mmHg 62%
20:00 +11°C° 0 mm 3 mps 759 mmHg 62%
21:00 +10°C° 0 mm 3 mps 759 mmHg 62%
22:00 +10°C° 0 mm 3 mps 759 mmHg 62%
23:00 +10°C° 0 mm 4 mps 758 mmHg 66%
Show more